THOR ABLESTAR DEB, 6748

Orbit data source: Space-Track

THOR ABLESTAR DEB, 6748 is space debris in LEO originally from a launch on Thu, 29 Jun 1961 UTC launched from the Air Force Eastern Test Range (AFETR). Debris objects in space refer to the collection of defunct objects orbiting the Earth. Examples of debris include non-operational satellites, rocket bodies, and fragments generated from explosions, collisions, or faulty payload assembly.

Loading next visibility...
Identifier
6748, 1961-015KN
Orbit
LEO
Country
Flag of USUS
Related business
Manufacturer
Unknown
Mission
Spacecraft
Bus & Motor
Unknown
Mass
Unknown
Launch date (UTC)
1961-06-29 (65 years ago)
Launch vehicle
Unknown
Launch site
Air Force Eastern Test Range (AFETR)
Object type
Payload
Rocket body
Debris
Shape & HBR
Unknown shape, 0.1 m
Radar Cross Section
Medium (>0.1 m² and <1 m²)

Expand to show TLE details & history
Last TLE update: 8 hours ago

TLE from 8 hours ago
0 THOR ABLESTAR DEB
1 06748U 61015KN  26264.84008626  .00003496  00000-0  11859-2 0  9990
2 06748  66.8923  65.3465 0064458 220.2035 139.4291 14.36629236304548
Epoch: 2026-09-21T20:09Z
TLE epoch observation values (Epoch: 2026-09-21T20:09:43.452Z)
Latitude
-0.00008°
Longitude
122.20127°
Altitude
806.912 km
Speed
7.432 km/s
True Right ascension
04h 21m 23s
True Declination
0° 00' 00"
Sunlit
Object was in daylight at epoch
Visualization orbit readout
Latitude
Unknown
Longitude
Unknown
Altitude
Unknown
Speed
Unknown
Apparent Right ascension
Unknown
Apparent Declination
Unknown
Sunlit
N/A
Visualization observer readout
Local Sidereal Time
21:02:09
Azimuth
Unknown
Elevation
Unknown
Doppler factor
Unknown
Orbital elements
Apogee altitude
814.067 km
Perigee altitude
721.942 km
Semi-major axis
7,146.142 km
Eccentricity
0.00645
Inclination
66.8923°
RAAN
65.3465°
Arg. of periapsis
220.2035°
True anomaly
139.90657°
Mean anomaly
139.4291°
Eccentric anomaly
139.66813°
Mean motion
3.59282 °/min
Orbital period
100.2 mins
BSTAR
0.0011859

Documentation

Showing up to 5 results
|